Regional Weather Roundup
Issued by NWS Sterling, VA

Home | Current Version | Previous Version | Text Only | Print | Product List | Glossary On
Versions: 1 2 3 4 5 6 7 8 9 10 11 12 13 14 15 16 17 18 19 20 21 22 23 24 25 26 27 28 29 30 31 32 33 34 35 36 37 38 39 40 41 42 43 44 45 46 47 48 49 50
679
ASUS41 KLWX 220611
RWRLWX

REGIONAL WEATHER ROUNDUP
NATIONAL WEATHER SERVICE BALTIMORE MD/WASHINGTON DC
200 AM EDT SUN OCT 22 2017

Note: "FAIR" indicates few or no clouds below 12,000 feet
with no significant weather and/or obstructions to visibility.
 TC=TEMPERATURE CELSIUS

 * =Non NWS site. Station does not report precipitation (e.g. rain,
    snow, etc.), thunder, or fog.

DCZ001-MDZ009-015-VAZ040>042-051-053>054-220700-
WASHINGTON METRO

CITY           SKY/WX    TMP DP  RH WIND       PRES   REMARKS
WASHINGTON NAT MOCLDY    58  51  78 CALM      30.35S
DULLES         NOT AVBL
ANDREWS AFB    CLEAR     51  45  80 CALM      30.33F
FT BELVOIR     CLEAR     49  48  96 CALM      30.34F
QUANTICO       PTCLDY    54  52  93 NW7       30.36S
COLLEGE PARK*  CLEAR     48  47  95 CALM      30.35S
LEESBURG*      PTCLDY    52  50  93 CALM      30.36S
MANASSAS*      PTCLDY    48  46  93 CALM      30.36S
GAITHERSBURG*  CLOUDY    49  46  90 CALM      30.36S

$$

MDZ006>007-011-014-220700-
BALTIMORE METRO

CITY           SKY/WX    TMP DP  RH WIND       PRES   REMARKS
BWI AIRPORT    PTCLDY    49  48  97 CALM      30.35S
MD SCIENCE CTR   N/A     60  49  66 MISG      30.35F
MARTIN STATE   PTCLDY    52  52 100 CALM      30.36F
ANNAPOLIS      CLEAR     56  56 100 CALM      30.34F
FORT MEADE*    CLEAR     45  45 100 CALM      30.37F

$$

MDZ012-015-019>023-220700-
MARYLAND EASTERN SHORE

CITY           SKY/WX    TMP DP  RH WIND       PRES   REMARKS
OCEAN CITY     CLOUDY    51  51 100 CALM      30.36S FOG
SALISBURY      CLOUDY    50  49  96 E3        30.35S
CAMBRIDGE*     CLEAR     52  50  93 CALM      30.35F
EASTON*        CLEAR     54  50  88 CALM      30.39S

$$

MDZ017>025-220700-
SOUTHERN MARYLAND

CITY           SKY/WX    TMP DP  RH WIND       PRES   REMARKS
PATUXENT RIVER CLOUDY    50  49  96 CALM      30.34F
ST INIGOES     CLOUDY    51  49  92 CALM      30.34F
LEONARDTOWN*   NOT AVBL

$$

MDZ003>005-220700-
NORTH CENTRAL MARYLAND

CITY           SKY/WX    TMP DP  RH WIND       PRES   REMARKS
FREDERICK*     CLOUDY    46  46 100 CALM      30.38S FOG
HAGERSTOWN APT CLEAR     61  45  55 SE7       30.33F
WESTMINSTER*   CLEAR     55  45  67 CALM      30.35S

$$

MDZ501>502-220700-
WESTERN MARYLAND

CITY           SKY/WX    TMP DP  RH WIND       PRES   REMARKS
OAKLAND*       CLEAR     54  46  76 SE10      30.32S
CUMBERLAND*    CLEAR     52  50  93 CALM      30.36S

$$

VAZ025>031-220700-
SHENANDOAH VALLEY

CITY           SKY/WX    TMP DP  RH WIND       PRES   REMARKS
WINCHESTER*    CLOUDY    50  43  76 CALM      30.33S
FRONT ROYAL*   CLOUDY    50  46  87 MISG      30.33S
LURAY*         CLOUDY    50  48  93 CALM      30.34S
NEW MARKET*    CLOUDY    47  46  96 CALM      30.34S
STAUNTON*      PTCLDY    47  46  94 CALM      30.36F
WAYNESBORO*    PTCLDY    54  50  87 S8        30.35S

$$

WVZ021-048>050-054>055-220700-
EASTERN WEST VIRGINIA PANHANDLE

CITY           SKY/WX    TMP DP  RH WIND       PRES   REMARKS
MARTINSBURG    CLEAR     48  45  89 CALM      30.32F
PETERSBURG*    CLEAR     47  46  97 CALM      30.33F

$$

VAZ036>039-050-220700-
CENTRAL FOOTHILLS

CITY           SKY/WX    TMP DP  RH WIND       PRES   REMARKS
CHARLOTTESVILL CLOUDY    55  52  89 N3        30.34F
CULPEPER*      CLOUDY    49  47  91 N3        30.36F
ORANGE*        MOCLDY    50  48  93 CALM      30.34S
GORDONSVILLE*  PTCLDY    50  50  99 CALM      30.34S
WARRENTON*     PTCLDY    46  42  86 CALM      30.35S

$$

VAZ055>057-220700-
NORTH AND CENTRAL PIEDMONT

CITY           SKY/WX    TMP DP  RH WIND       PRES   REMARKS
FREDERICKSBRG* PTCLDY    51  51 100 CALM      30.34F
STAFFORD*      PTCLDY    46  46 100 CALM      30.39S

$$

NCZ024-NYZ072-PAZ021-071-VAZ022-071-220700-
OTHER REGIONAL OBSERVATIONS

CITY           SKY/WX    TMP DP  RH WIND       PRES   REMARKS
NEW YORK CITY  CLEAR     64  45  49 CALM      30.38S
PHILADELPHIA   PTCLDY    54  48  80 CALM      30.36F
PITTSBURGH     PTCLDY    53  50  89 CALM      30.25F
ROANOKE        PTCLDY    56  53  90 CALM      30.36F
RICHMOND       PTCLDY    53  51  93 CALM      30.35S
RALEIGH        CLOUDY    56  54  93 CALM      30.34F

$$

ANZ530>537-220700-
MARINE OBSERVATIONS

STATION/POSITION TIME  TEMP    WIND        PRES
                       AIR SEA DIR/SP/G
                 (UTC) (F)     (DEG/KT/KT) (MB)
THOMAS PT LIGHT  0600   66 68  170/  7/  8   N/A
BALT KEY BRIDGE  0542   61      20/  2/  3 1027.6F
COVE POINT       0542   64     210/  5/  6 1028.3S
LEWISETTA        0542   60 67  260/  2/  2 1027.5F
SOLOMONS ISLAND  0542   60 69   CALM  /  2 1027.3F
PINEY POINT      0518          160/  5/  6   N/A

$$





USA.gov is the U.S. government's official web portal to all federal, state and local government web resources and services.